This is the latest recevied weather packets stored in our database for station/object IZ8XTV-13. If no packets are shown the sender has not sent any weather packets the latest 10 day(s).
| Time | Temp. | Humidity | Pressure | Rain* | Wind** | Luminosity | Snow |
|---|---|---|---|---|---|---|---|
| 1778234654 | 18.33° C | 99% | 1013.4 hPa | 0 mm | - | - | - |
| 1778234043 | 17.78° C | 99% | 1013.2 hPa | 0 mm | - | - | - |
| 1778233431 | 17.78° C | 99% | 1013.3 hPa | 0 mm | - | - | - |
| 1778232820 | 18.33° C | 99% | 1013.3 hPa | 0 mm | - | - | - |
| 1778232208 | 18.33° C | 99% | 1013.2 hPa | 0 mm | - | - | - |
| 1778231597 | 18.33° C | 99% | 1013.1 hPa | 0 mm | - | - | - |
| 1778230985 | 18.33° C | 99% | 1013.2 hPa | 0 mm | - | - | - |
| 1778230373 | 18.33° C | 99% | 1013.3 hPa | 0 mm | - | - | - |
| 1778229761 | 18.33° C | 99% | 1013.1 hPa | 0 mm | - | - | - |
| 1778229149 | 18.33° C | 99% | 1013 hPa | 0 mm | - | - | - |
| 1778228537 | 18.33° C | 99% | 1012.9 hPa | 0 mm | - | - | - |
| 1778227925 | 17.78° C | 99% | 1012.9 hPa | 0 mm | - | - | - |
| 1778227312 | 17.78° C | 99% | 1012.7 hPa | 0 mm | - | - | - |
| 1778226701 | 17.22° C | 99% | 1012.8 hPa | 0 mm | - | - | - |
| 1778226089 | 17.22° C | 99% | 1012.6 hPa | 0 mm | - | - | - |
| 1778225477 | 16.67° C | 99% | 1012.7 hPa | 0 mm | - | - | - |
| 1778224865 | 16.11° C | 99% | 1012.7 hPa | 0 mm | - | - | - |
| 1778224253 | 16.11° C | 99% | 1012.6 hPa | 0 mm | - | - | - |
| 1778223642 | 16.11° C | 99% | 1012.6 hPa | 0 mm | - | - | - |
| 1778223030 | 15.56° C | 99% | 1012.5 hPa | 0 mm | - | - | - |
| 1778222418 | 16.11° C | 99% | 1012.4 hPa | 0 mm | - | - | - |
| 1778221806 | 15.56° C | 99% | 1012.2 hPa | 0 mm | - | - | - |
| 1778221194 | 15.56° C | 99% | 1012.4 hPa | 0 mm | - | - | - |
| 1778220582 | 15° C | 99% | 1012.5 hPa | 0 mm | - | - | - |
| 1778219970 | 15° C | 99% | 1012.4 hPa | 0 mm | - | - | - |
* Rain latest hour (hover to see other rain measurements)
** Current wind speed in m/s (hover to see current wind gust speed)